IRIDIUM 33 DEB

Satellite information

Favourite Embed

Satellite Type and Status

DEBRISIN ORBIT

Key statistics

Satellite IRIDIUM 33 DEB at a glance.

Uptime

10212

Days in orbit

Revolutions

≈ 14.8

Per day

Orbit

LEO

Low Earth Orbit

Inclination

86.3

Latest

Satellite identification and parameters

Extended collection of information and parameters for IRIDIUM 33 DEB.

Object identification

Identified? True

Debris? True

Object name: IRIDIUM 33 DEB

International designator: 1997-051BV

Object number (NORAD): 33960

Object ID (CCSDS): 33960

Country: UNITED STATES OF AMERICA (US)

Current information (Y/N): Y

RCS size: SMALL

Orbital parameters

Period: 97.323 minutes

Inclination: 86.2616 deg

SMA: 7008.708 km

Apoapsis: 633.463 km

Periapsis: 627.683 km

RAAN: 338.7297 deg

Eccentricy: 0.00041236

Argument of periapsis: 102.6979 deg

Mean anomaly: 18.2816 deg

Mean motion: 14.79605101 rev/day

Mean motion (dot): 0.00018014 rev/day2

B* drag term: 0.0023972216 1/REarth

Two-line elements (TLE)

Creation date: Aug. 30, 2025, 3:38 a.m.

Reference frame: TEME

Reference center: EARTH

Epoch: Aug. 29, 2025, 6:17 p.m. UTC

TLE line 0: 0 IRIDIUM 33 DEB

TLE line 1: 1 33960U 97051BV 25241.76190631 .00018014 00000-0 23972-2 0 9999

TLE line 2: 2 33960 86.2616 338.7297 0004124 102.6979 18.2816 14.79605101873127

Live tracking on map

Real-time ground track for satellite IRIDIUM 33 DEB.

In-orbit conjunctions

A list of the most updated potential collisions computed for object IRIDIUM 33 DEB.

Target Orbit TCA Probability of collision Miss distance Type
CZ-6A DEB SSO 2024-10-15 12:07:44 0.0001143508 188.0 (m) DEBRIS

Associated space launch

Iridium provides global mobile telecommunications services using a constellation of 66 low earth orbit satellites in a 86.4° inclined orbit. Although 77 satellites were originally envisioned for the system and spawned the name based on the 77th element in the periodic table, the system has been scaled back. Motorola's Satellite Communications Group designed and manufactured the Iridium satellites with Lockheed Martin providing the LM-700A spacecraft buses.

IRIDIUM 33 DEB was lifted into orbit during the mission ‘Proton-K/17S40 | Iridium 27 to 33’, on board a Proton-K/17S40 space rocket.

The launch took place on Sept. 14, 1997, 1:36 a.m. from 81/23 (81L).

For more information about the launch, click the button.

Launch to space Proton-K/17S40 | Iridium 27 to 33
Proton-K/17S40 | Iridium 27 to 33

Agency: N/A

Status: Launch Successful

Launch date: Sept. 14, 1997, 1:36 a.m. UTC

Rocket: Proton-K/17S40

Launch pad: 81/23 (81L)

Location: Baikonur Cosmodrome, Republic of Kazakhstan

...

Latest news about this satellite

There are no fresh news available about this satellite. Check back as we update our databases every day.


Newsletter sign-up

Weekly statistics, charts and insights to help you stay on top of the space industry.